Weather History for KAQV - January, 2014

Change the Weather History Date:

Thursday, January 2, 2014

  Actual Average (KPOE) Record (KPOE)
Temperature  
Mean Temperature 42 °F -  
Max Temperature 57 °F 58 °F 78 °F (2000)
Min Temperature 28 °F 38 °F 21 °F (2001)
Degree Days  
Heating Degree Days 22    
Moisture  
Dew Point 36 °F    
Average Humidity 71    
Maximum Humidity 100    
Minimum Humidity 37    
Precipitation  
Precipitation 0.00 in - - ()
Sea Level Pressure  
Sea Level Pressure 30.19 in    
Wind  
Wind Speed 5 mph (NW)    
Max Wind Speed 14 mph    
Max Gust Speed 23 mph    
Visibility 9 miles    
Events      
Averages and records for this station are not official NWS values.
T = Trace of Precipitation, MM = Missing Value Source: NWS Daily Summary

Daily Weather History Graph

Daily Weather History Graph

Search for Another Location

Airport or City:

Trip Planner

Search our weather history database for the weather conditions in past years. The results will help you decide how hot, cold, wet, or windy it might be!

Date:

Astronomy

Jan. 02, 2014 Rise Set
Actual Time 7:12 AM CST 5:22 PM CST
Civil Twilight 6:45 AM CST 5:48 PM CST
Nautical Twilight 6:15 AM CST 6:19 PM CST
Astronomical Twilight 5:46 AM CST 6:48 PM CST
Moon 8:01 AM CST (1/2) 7:11 PM CST (1/2)
Length of Visible Light 11h 02m
Length of Day
10h 09m
Waxing Crescent, 3% of the Moon is Illuminated
Jan 2
Waxing Crescent
Jan 7
First Quarter
Jan 15
Full
Jan 23
Last Quarter
Jan 30
New

Hourly Weather History & Observations

Time (CST) Temp. Windchill Dew Point Humidity Pressure Visibility Wind Dir Wind Speed Gust Speed Precip Events Conditions
12:13 AM 53.6 °F - 53.6 °F 100% 30.02 in 4.0 mi Variable 3.5 mph - N/A   Overcast
12:37 AM 55.4 °F - 53.6 °F 94% 30.02 in 4.0 mi SSW 3.5 mph - N/A   Overcast
12:56 AM 55.0 °F - 54.0 °F 96% 30.01 in 4.0 mi SSW 3.5 mph - N/A   Overcast
1:56 AM 55.9 °F - 55.0 °F 97% 30.01 in 7.0 mi Variable 3.5 mph - N/A   Overcast
2:14 AM 55.4 °F - 55.4 °F 100% 30.01 in 10.0 mi WSW 3.5 mph - N/A   Overcast
2:26 AM 55.4 °F - 53.6 °F 94% 30.02 in 10.0 mi Variable 3.5 mph - N/A   Overcast
2:52 AM 55.4 °F - 53.6 °F 94% 30.02 in 10.0 mi Variable 4.6 mph - N/A   Overcast
2:56 AM 55.9 °F - 54.0 °F 93% 30.01 in 10.0 mi Variable 5.8 mph - N/A   Overcast
3:16 AM 57.2 °F - 55.4 °F 94% 30.01 in 10.0 mi West 5.8 mph - N/A   Overcast
3:56 AM 55.9 °F - 54.0 °F 93% 30.01 in 10.0 mi Variable 4.6 mph - N/A   Mostly Cloudy
4:56 AM 52.0 °F - 43.0 °F 71% 30.05 in 10.0 mi Variable 4.6 mph - N/A   Scattered Clouds
5:56 AM 45.0 °F 38.9 °F 35.1 °F 68% 30.10 in 10.0 mi North 12.7 mph 23.0 mph N/A   Clear
6:56 AM 39.0 °F 33.4 °F 30.0 °F 70% 30.15 in 10.0 mi NNW 8.1 mph 21.9 mph N/A   Clear
7:56 AM 37.0 °F 31.0 °F 28.0 °F 70% 30.19 in - NW 8.1 mph - N/A   Clear
8:56 AM 37.9 °F 29.6 °F 26.1 °F 62% 30.23 in - NNW 13.8 mph 20.7 mph N/A   Clear
9:56 AM 39.9 °F 34.5 °F 26.1 °F 58% 30.26 in - North 8.1 mph 19.6 mph N/A   Clear
10:56 AM 43.0 °F 36.4 °F 27.0 °F 53% 30.26 in - North 12.7 mph 19.6 mph N/A   Clear
11:56 AM 46.9 °F - 28.0 °F 48% 30.25 in - NNE 11.5 mph 18.4 mph N/A   Clear
12:56 PM 48.0 °F - 27.0 °F 44% 30.24 in 10.0 mi Variable 5.8 mph - N/A   Clear
1:56 PM 48.9 °F - 25.0 °F 39% 30.25 in 10.0 mi Variable 6.9 mph 18.4 mph N/A   Clear
2:56 PM 48.9 °F - 24.1 °F 38% 30.27 in 10.0 mi North 9.2 mph 20.7 mph N/A   Clear
3:56 PM 48.0 °F - 23.0 °F 37% 30.29 in 10.0 mi Variable 5.8 mph - N/A   Clear
4:56 PM 44.1 °F 40.1 °F 23.0 °F 43% 30.32 in 10.0 mi Variable 6.9 mph - N/A   Clear
5:56 PM 41.0 °F 39.0 °F 21.9 °F 47% 30.34 in 10.0 mi North 3.5 mph - N/A   Clear
6:56 PM 39.9 °F 35.8 °F 21.0 °F 47% 30.36 in 10.0 mi Variable 5.8 mph - N/A   Clear
7:56 PM 36.0 °F - 21.9 °F 57% 30.39 in 10.0 mi Calm Calm - N/A   Clear
8:56 PM 30.9 °F - 24.1 °F 76% 30.41 in 10.0 mi Calm Calm - N/A   Clear
9:56 PM 30.0 °F - 24.1 °F 79% 30.42 in 10.0 mi Calm Calm - N/A   Clear
10:56 PM 28.9 °F - 24.1 °F 82% 30.41 in 10.0 mi Calm Calm - N/A   Clear
11:56 PM 28.9 °F - 24.1 °F 82% 30.40 in 10.0 mi Calm Calm - N/A   Clear